Torna al catalogo

STARLINK-31298

AttivoComunicazioniVLEO
NORAD 59167·PAYLOAD·🇺🇸 United States

Lanciato Mar 4, 2024 da Cape Canaveral Space Force Station

Loading…

Prossimi Passaggi (prossime 24 ore)

TLE

AggiornatoSource: CelesTrak SupGP

Epoca: Sep 15, 2026, 03:02 UTC

1 59167C 24044R   26258.12687500  .00049848  00000+0  18057-2 0  2587
2 59167  42.9997 117.1687 0001512 277.7216 228.9922 15.27550832    15

Traccia STARLINK-31298 in tempo reale con AllMySat

Download on the App Store